CW0879 Weather Reports


time (UTC)temp
C
wind
direction
speed
KPH
gust
KPH
rain 1hr
cm
rain 24hr
cm
rain mn
cm
humidity
%
barometer
mb
20260505230509 18 205 9.7 16.1 0.00 0.79 0.28 74 1015.4
20260505230029 18 188 3.2 14.5 0.00 0.79 0.28 75 1015.5
20260505225509 18 204 6.4 14.5 0.00 0.79 0.28 74 1015.5
20260505225010 17 196 6.4 12.9 0.00 0.79 0.28 74 1015.5
20260505224526 17 214 8.0 14.5 0.00 0.79 0.28 73 1015.5
20260505224010 18 196 8.0 14.5 0.00 0.79 0.28 74 1015.5
20260505223509 18 186 4.8 16.1 0.00 0.79 0.28 73 1015.6
20260505223007 18 186 6.4 16.1 0.00 0.79 0.28 73 1015.5
20260505222508 18 237 4.8 14.5 0.00 0.79 0.28 74 1015.6
20260505222008 18 192 4.8 14.5 0.00 0.79 0.28 72 1015.6
20260505221505 18 229 6.4 14.5 0.00 0.79 0.28 73 1015.6
20260505221007 18 215 8.0 14.5 0.00 0.79 0.28 74 1015.5
20260505220503 18 181 8.0 14.5 0.00 0.79 0.28 74 1015.5
20260505220010 18 219 3.2 14.5 0.00 0.79 0.28 76 1015.6
20260505215503 17 223 4.8 17.7 0.00 0.79 0.28 76 1015.6
20260505215003 17 211 6.4 17.7 0.00 0.79 0.28 75 1015.7
20260505214504 17 209 6.4 14.5 0.00 0.79 0.28 75 1015.8
20260505214004 18 213 4.8 12.9 0.00 0.79 0.28 75 1015.8
20260505213503 18 257 4.8 12.9 0.00 0.79 0.28 75 1015.8
20260505213005 18 253 6.4 14.5 0.00 0.79 0.28 77 1015.8
20260505212503 17 235 1.6 14.5 0.00 0.79 0.28 77 1015.8
20260505212004 17 230 6.4 19.3 0.00 0.79 0.28 75 1015.8
20260505211511 17 259 9.7 19.3 0.00 0.79 0.28 76 1015.9
20260505211004 17 207 4.8 17.7 0.00 0.79 0.28 74 1015.9
20260505210503 18 238 9.7 17.7 0.00 0.79 0.28 75 1015.9
20260505210008 18 260 12.9 16.1 0.00 0.79 0.28 75 1015.9
20260505205509 18 269 11.3 14.5 0.00 0.79 0.28 75 1015.8
20260505205008 18 279 11.3 14.5 0.00 0.79 0.28 74 1015.9
20260505204514 18 271 9.7 14.5 0.00 0.79 0.28 73 1015.9
20260505204003 19 251 6.4 12.9 0.00 0.79 0.28 74 1015.9
20260505203503 19 253 8.0 14.5 0.00 0.79 0.28 75 1015.9
20260505203003 18 261 9.7 14.5 0.00 0.79 0.28 75 1015.9
20260505202504 18 259 9.7 14.5 0.00 0.79 0.28 74 1015.9
20260505202004 18 244 8.0 14.5 0.00 0.79 0.28 74 1016.0
20260505201510 18 240 6.4 12.9 0.00 0.79 0.28 75 1016.0
20260505201003 19 246 6.4 14.5 0.00 0.79 0.28 75 1016.1
20260505200508 18 252 6.4 14.5 0.00 0.79 0.28 74 1016.2
20260505200016 19 263 8.0 14.5 0.00 0.79 0.28 73 1016.1
20260505195503 19 268 8.0 14.5 0.00 0.79 0.28 74 1016.2
20260505195003 18 252 6.4 12.9 0.00 0.79 0.28 77 1016.2
20260505194516 18 252 4.8 12.9 0.00 0.79 0.28 76 1016.3
20260505194008 17 238 6.4 12.9 0.00 0.79 0.28 76 1016.3
20260505193504 18 261 8.0 12.9 0.00 0.79 0.28 77 1016.3
20260505193015 17 259 6.4 12.9 0.00 0.79 0.28 78 1016.3
20260505192509 17 251 6.4 12.9 0.00 0.79 0.28 78 1016.2
20260505192006 17 231 8.0 12.9 0.00 0.79 0.28 78 1016.3
20260505191521 17 236 6.4 14.5 0.00 0.79 0.28 79 1016.3
20260505191010 16 247 8.0 14.5 0.00 0.79 0.28 78 1016.3
20260505190504 16 247 8.0 14.5 0.00 0.79 0.28 79 1016.3
20260505190008 16 249 9.7 14.5 0.00 0.79 0.28 78 1016.2
20260505185507 16 261 11.3 19.3 0.00 0.79 0.28 79 1016.3
20260505185007 16 250 9.7 19.3 0.00 0.79 0.28 78 1016.2
20260505184516 16 257 12.9 19.3 0.00 0.79 0.28 78 1016.2
20260505184004 16 280 12.9 19.3 0.00 0.79 0.28 77 1016.2
20260505183507 17 268 12.9 19.3 0.00 0.79 0.28 77 1016.1
20260505183020 17 278 11.3 19.3 0.00 0.79 0.28 79 1016.1
20260505182504 16 263 12.9 17.7 0.00 0.79 0.28 81 1016.1
20260505182007 16 275 12.9 17.7 0.00 0.79 0.28 81 1016.2
20260505181522 15 288 11.3 17.7 0.00 0.79 0.28 82 1016.2
20260505181008 15 271 11.3 16.1 0.00 0.79 0.28 83 1016.3
20260505180504 15 262 4.8 14.5 0.00 0.79 0.28 83 1016.2
20260505180008 15 293 4.8 8.0 0.00 0.79 0.28 83 1016.3
20260505175508 15 299 4.8 11.3 0.00 0.79 0.28 84 1016.2
20260505175003 15 300 4.8 12.9 0.00 0.79 0.28 84 1016.0
20260505174518 15 300 6.4 14.5 0.00 0.79 0.28 84 1016.1
20260505174006 15 293 6.4 14.5 0.00 0.79 0.28 84 1016.1
20260505173510 15 296 9.7 14.5 0.00 0.79 0.28 85 1016.0
20260505173013 14 273 9.7 14.5 0.00 0.79 0.28 85 1015.9
20260505172507 14 277 8.0 12.9 0.00 0.79 0.28 86 1015.7
20260505172010 14 293 6.4 12.9 0.00 0.79 0.28 86 1015.8
20260505171521 14 291 8.0 11.3 0.00 0.79 0.28 86 1015.9
20260505171004 14 284 6.4 12.9 0.00 0.79 0.28 86 1015.8
20260505170506 14 292 8.0 14.5 0.00 0.79 0.28 87 1015.7
20260505170020 14 296 6.4 14.5 0.00 0.79 0.28 87 1015.8
20260505165504 14 286 8.0 16.1 0.00 0.79 0.28 87 1015.8
20260505165005 13 285 8.0 16.1 0.00 0.79 0.28 87 1015.9
20260505164520 13 269 9.7 14.5 0.00 0.79 0.28 87 1015.8
20260505164003 13 281 8.0 14.5 0.00 0.79 0.28 88 1015.8
20260505163506 13 279 8.0 14.5 0.00 0.79 0.28 88 1015.7
20260505163011 13 290 9.7 17.7 0.00 0.79 0.28 88 1015.8
20260505162511 13 276 12.9 17.7 0.00 0.79 0.28 88 1015.8
20260505162007 13 275 6.4 16.1 0.00 0.79 0.28 89 1015.7
20260505161533 13 267 12.9 17.7 0.00 0.79 0.28 89 1015.7
20260505161010 13 264 11.3 17.7 0.00 0.79 0.28 89 1015.7
20260505160513 13 273 8.0 17.7 0.00 0.79 0.28 89 1015.7
20260505153025 13 261 12.9 19.3 0.00 0.79 0.28 91 1015.4
20260505152506 12 259 12.9 25.7 0.00 0.79 0.28 91 1015.4
20260505152003 12 269 14.5 25.7 0.00 0.79 0.28 91 1015.3
20260505151532 12 265 12.9 22.5 0.00 0.79 0.28 91 1015.3
20260505151008 12 266 14.5 22.5 0.00 0.79 0.28 91 1015.3
20260505150508 12 246 12.9 20.9 0.00 0.79 0.28 91 1015.2
20260505140508 12 260 9.7 19.3 0.00 0.79 0.28 92 1014.9
20260505125013 11 222 6.4 14.5 0.00 0.79 0.28 93 1014.6
20260505124518 11 215 6.4 14.5 0.00 0.79 0.28 93 1014.5
20260505124008 11 223 4.8 12.9 0.00 0.79 0.28 93 1014.5
20260505123509 11 214 6.4 22.5 0.00 0.79 0.28 93 1014.5
20260505123012 11 235 9.7 22.5 0.00 0.79 0.28 93 1014.5
20260505122507 11 231 6.4 12.9 0.00 0.79 0.28 93 1014.5
20260505122011 11 216 8.0 12.9 0.00 0.79 0.28 93 1014.6
20260505121532 11 215 6.4 11.3 0.00 0.79 0.28 93 1014.7
20260505121004 11 209 6.4 12.9 0.00 0.79 0.28 93 1014.6
20260505120510 11 211 6.4 12.9 0.00 0.79 0.28 93 1014.6
20260505120024 11 229 8.0 14.5 0.00 0.79 0.28 93 1014.5
20260505115505 11 219 6.4 14.5 0.00 0.79 0.28 93 1014.5
20260505115008 11 237 8.0 14.5 0.00 0.79 0.28 93 1014.5
20260505114513 11 227 4.8 11.3 0.00 0.79 0.28 93 1014.4
20260505114008 11 229 4.8 11.3 0.00 0.79 0.28 93 1014.5
20260505113504 11 209 3.2 9.7 0.00 0.79 0.28 93 1014.5
20260505113018 11 205 4.8 9.7 0.00 0.79 0.28 93 1014.5
20260505112512 11 189 1.6 8.0 0.00 0.79 0.28 93 1014.5
20260505112009 11 188 3.2 8.0 0.00 0.79 0.28 93 1014.5
20260505111516 11 187 3.2 8.0 0.00 0.79 0.28 93 1014.5
20260505111011 11 180 1.6 8.0 0.00 0.79 0.28 93 1014.7
20260505110514 11 180 4.8 9.7 0.00 0.79 0.28 93 1014.7
20260505102007 11 203 1.6 9.7 0.00 0.79 0.28 93 1014.8
20260505101529 11 198 3.2 9.7 0.00 0.79 0.28 93 1014.8
20260505101010 11 198 3.2 8.0 0.00 0.79 0.28 93 1014.9
20260505100508 11 198 1.6 11.3 0.00 0.79 0.28 93 1014.9
20260505100024 11 198 3.2 12.9 0.00 0.79 0.28 93 1014.7
20260505095508 11 180 4.8 12.9 0.03 0.79 0.28 93 1014.6
20260505095007 11 213 4.8 11.3 0.03 0.79 0.28 92 1014.5
20260505094517 11 194 3.2 9.7 0.03 0.79 0.28 92 1014.7
20260505094010 11 204 3.2 8.0 0.03 0.79 0.28 92 1014.9
20260505093508 11 207 3.2 9.7 0.05 0.79 0.28 92 1014.9
20260505093018 11 194 3.2 9.7 0.05 0.79 0.28 92 1015.0
20260505092509 11 192 3.2 8.0 0.05 0.79 0.28 92 1015.0
20260505092008 11 191 3.2 8.0 0.05 0.79 0.28 92 1015.0
20260505091518 11 190 3.2 8.0 0.05 0.79 0.28 92 1015.1
20260505091010 11 216 3.2 11.3 0.05 0.79 0.28 92 1015.1
20260505090509 11 215 4.8 11.3 0.05 0.79 0.28 92 1015.1
20260505090037 11 210 4.8 9.7 0.05 0.79 0.28 92 1015.0
20260505085508 11 213 3.2 11.3 0.05 0.76 0.25 92 1015.2
20260505085007 11 202 4.8 11.3 0.05 0.76 0.25 92 1015.2
20260505084526 11 202 3.2 8.0 0.08 0.76 0.25 92 1015.3
20260505084011 11 198 3.2 9.7 0.10 0.76 0.25 92 1015.4
20260505083509 11 192 3.2 9.7 0.10 0.74 0.23 92 1015.5
20260505083023 11 196 3.2 11.3 0.10 0.74 0.23 92 1015.6
20260505082512 11 198 4.8 11.3 0.15 0.74 0.23 92 1015.5
20260505082013 11 221 3.2 8.0 0.18 0.74 0.23 92 1015.4
20260505081524 11 221 0.0 4.8 0.20 0.74 0.23 92 1015.4
20260505081013 11 221 1.6 6.4 0.20 0.74 0.23 92 1015.4
20260505080510 11 221 3.2 8.0 0.20 0.74 0.23 92 1015.5
20260505080036 11 221 3.2 8.0 0.23 0.74 0.23 92 1015.5
20260505075507 11 221 1.6 9.7 0.20 0.71 0.20 91 1015.6
20260505075007 11 222 6.4 16.1 0.20 0.71 0.20 91 1015.6
20260505074526 11 252 6.4 17.7 0.18 0.69 0.18 92 1015.6
20260505074008 11 265 9.7 17.7 0.15 0.66 0.15 92 1015.6
20260505073506 11 286 11.3 20.9 0.13 0.64 0.13 92 1015.8
20260505073033 11 273 11.3 20.9 0.13 0.64 0.13 91 1015.6
20260505072509 11 262 11.3 16.1 0.08 0.58 0.08 91 1015.4
20260505072010 11 239 4.8 8.0 0.05 0.56 0.05 91 1015.5
20260505071537 11 240 4.8 16.1 0.05 0.53 0.03 91 1015.7
20260505071007 11 250 4.8 16.1 0.05 0.53 0.03 91 1015.7
20260505070511 11 270 11.3 16.1 0.05 0.53 0.03 91 1015.7
20260505070026 11 244 3.2 16.1 0.03 0.51 0.00 91 1015.9
20260505065511 11 278 11.3 16.1 0.05 0.51 0.51 91 1015.9
20260505065007 11 281 11.3 16.1 0.08 0.51 0.51 91 1015.9
20260505064528 11 294 9.7 16.1 0.10 0.51 0.51 91 1015.8
20260505064010 11 273 8.0 12.9 0.13 0.51 0.51 91 1015.8
20260505063507 11 214 3.2 8.0 0.15 0.51 0.51 91 1015.8
20260505063019 11 213 1.6 8.0 0.15 0.51 0.51 91 1015.7
20260505062511 11 212 4.8 9.7 0.18 0.51 0.51 91 1015.7
20260505062009 11 213 1.6 11.3 0.18 0.51 0.51 91 1015.7
20260505061531 11 215 4.8 17.7 0.18 0.48 0.48 90 1015.5
20260505061006 11 223 8.0 17.7 0.18 0.48 0.48 90 1015.3
20260505060514 11 244 4.8 12.9 0.20 0.48 0.48 90 1015.3
20260505060034 11 218 4.8 14.5 0.20 0.48 0.48 90 1015.3
20260505055513 11 270 9.7 16.1 0.18 0.46 0.46 90 1015.5
20260505055013 11 277 9.7 16.1 0.18 0.43 0.43 90 1015.6
20260505054527 11 270 9.7 16.1 0.15 0.41 0.41 90 1015.7
20260505054011 11 265 8.0 14.5 0.13 0.38 0.38 90 1015.7
20260505053514 11 266 11.3 17.7 0.13 0.36 0.36 90 1015.8
20260505053010 11 244 11.3 19.3 0.15 0.36 0.36 90 1015.7
20260505052507 11 269 14.5 19.3 0.15 0.33 0.33 90 1015.6
20260505052007 11 271 14.5 17.7 0.18 0.33 0.33 90 1015.6
20260505051525 11 267 11.3 19.3 0.15 0.30 0.30 90 1015.5
20260505051006 11 225 14.5 19.3 0.15 0.30 0.30 89 1015.5
20260505050507 12 269 9.7 17.7 0.15 0.28 0.28 89 1015.6
20260505041515 12 286 16.1 25.7 0.10 0.15 0.15 88 1016.1
20260505041007 12 286 19.3 25.7 0.13 0.15 0.15 88 1016.1
20260505040511 12 296 20.9 25.7 0.10 0.13 0.13 88 1016.1
20260505040010 12 292 20.9 25.7 0.10 0.13 0.13 88 1016.0
20260505035511 12 288 17.7 25.7 0.08 0.10 0.10 88 1015.9
20260505035018 12 290 17.7 25.7 0.08 0.10 0.10 88 1015.9
20260505034511 12 298 17.7 25.7 0.05 0.08 0.08 88 1015.7
20260505034003 12 296 17.7 25.7 0.05 0.08 0.08 88 1015.5
20260505033511 12 284 17.7 25.7 0.05 0.08 0.08 88 1015.4
20260505033024 12 286 19.3 24.1 0.03 0.05 0.05 88 1015.3
20260505032504 12 274 17.7 24.1 0.03 0.05 0.05 88 1015.2
20260505032010 12 298 17.7 25.7 0.03 0.05 0.05 88 1015.1
20260505031519 12 271 19.3 25.7 0.03 0.05 0.05 88 1015.0
20260505031006 13 284 14.5 19.3 0.03 0.03 0.03 88 1015.0
20260505030504 13 289 14.5 25.7 0.03 0.03 0.03 88 1014.9
20260505030022 13 299 16.1 25.7 0.03 0.03 0.03 88 1015.0
20260505025510 13 298 16.1 24.1 0.03 0.03 0.03 88 1014.9
20260505025009 13 303 19.3 24.1 0.03 0.03 0.03 88 1014.9
20260505024520 13 294 17.7 25.7 0.03 0.03 0.03 88 1015.1
20260505024010 13 295 19.3 25.7 0.03 0.03 0.03 88 1015.0
20260505023507 13 294 17.7 25.7 0.03 0.03 0.03 88 1015.0
20260505023015 13 317 19.3 25.7 0.03 0.03 0.03 88 1015.1
20260505022508 13 297 16.1 22.5 0.03 0.03 0.03 88 1015.1
20260505022008 13 307 16.1 20.9 0.03 0.03 0.03 88 1015.1
20260505021516 13 311 14.5 20.9 0.03 0.03 0.03 88 1015.1
20260505021008 13 306 14.5 20.9 0.00 0.00 0.00 87 1015.1
20260505020507 13 295 16.1 20.9 0.00 0.00 0.00 87 1015.0
20260505020020 13 298 12.9 19.3 0.00 0.00 0.00 87 1015.0
20260505015505 13 286 16.1 19.3 0.00 0.00 0.00 87 1015.0
20260505015008 13 297 14.5 20.9 0.00 0.00 0.00 87 1015.2
20260505014535 13 299 12.9 20.9 0.00 0.00 0.00 86 1015.3
20260505014014 13 298 12.9 19.3 0.00 0.00 0.00 86 1015.3
20260505013508 13 290 12.9 20.9 0.00 0.00 0.00 86 1015.4
20260505013023 13 291 16.1 20.9 0.00 0.00 0.00 85 1015.4
20260505012511 13 294 14.5 22.5 0.00 0.00 0.00 85 1015.5
20260505012011 13 286 17.7 24.1 0.00 0.00 0.00 84 1015.5
20260505011520 13 288 16.1 25.7 0.00 0.00 0.00 84 1015.5
20260505011006 14 277 16.1 25.7 0.00 0.00 0.00 83 1015.5
20260505010507 14 271 17.7 27.4 0.00 0.00 0.00 82 1015.5
20260505010020 14 276 19.3 27.4 0.00 0.00 0.00 80 1015.5
20260505005508 14 275 19.3 27.4 0.00 0.00 0.00 80 1015.4
20260505005011 14 283 20.9 27.4 0.00 0.00 0.00 79 1015.3
20260505004525 14 278 22.5 27.4 0.00 0.00 0.00 78 1015.3
20260505004008 15 279 19.3 27.4 0.00 0.00 0.00 77 1015.3
20260505003507 15 279 19.3 24.1 0.00 0.00 0.00 77 1015.3
20260505003026 15 286 19.3 25.7 0.00 0.00 0.00 76 1015.4
20260505002508 15 285 19.3 25.7 0.00 0.00 0.00 75 1015.4
20260505002007 15 290 22.5 25.7 0.00 0.00 0.00 75 1015.4
20260505001528 15 302 17.7 24.1 0.00 0.00 0.00 76 1015.4
20260505001010 15 298 19.3 24.1 0.00 0.00 0.00 76 1015.4
20260505000506 15 293 14.5 24.1 0.00 0.00 0.00 75 1015.3
20260505000025 15 273 17.7 24.1 0.00 0.00 0.00 74 1015.3
20260504235511 15 278 17.7 24.1 0.00 0.00 0.00 74 1015.3
20260504235007 16 296 16.1 24.1 0.00 0.00 0.00 74 1015.3
20260504234521 16 292 17.7 25.7 0.00 0.00 0.00 74 1015.2
20260504234014 16 281 20.9 25.7 0.00 0.00 0.00 73 1015.2
20260504233507 16 292 19.3 25.7 0.00 0.00 0.00 73 1015.2
20260504233018 16 273 19.3 25.7 0.00 0.00 0.00 71 1015.1
20260504232508 16 282 19.3 25.7 0.00 0.00 0.00 70 1015.2
20260504232009 16 268 19.3 25.7 0.00 0.00 0.00 69 1015.1
20260504231524 16 288 19.3 25.7 0.00 0.00 0.00 70 1015.1
20260504231009 16 285 19.3 24.1 0.00 0.00 0.00 70 1015.1